Location: Cormont
(50.5693°N, 1.7416°E)
Time: 20:31:02
(UTC+00:00)

Cosmos 1459 Rocket - Pass Details

Date: 21 October 2019
Orbit: 938 x 999 km, 83.0° (Epoch: 10 November)

Event Time Altitude Azimuth Distance (km) Brightness Sun altitude
Rises 18:34:38 0° 351° (N) 3,659 7.2 -17.3°
Reaches altitude 10° 18:37:09 10° 354° (N) 2,718 6.5 -17.7°
Maximum altitude 18:43:22 68° 78° (ENE) 1,053 3.9 -18.7°
Drops below altitude 10° 18:49:37 10° 161° (SSE) 2,741 6.1 -19.7°
Sets 18:52:10 0° 164° (SSE) 3,692 6.8 -20.1°
